Time,TemperatureF,DewpointF,PressureIn,WindDirection,WindDirectionDegrees,WindSpeedMPH,WindSpeedGustMPH,Humidity,HourlyPrecipIn,Conditions,Clouds,dailyrainin,SoftwareType,DateUTC
2016-12-02 00:09:00,36.1,30.0,30.06,WNW,284,0.0,2.0,79,0.00,,,0.00,weatherlink.com 1.10,2016-12-02 05:09:00,
2016-12-02 00:25:00,36.0,30.0,30.06,WNW,296,0.0,3.0,79,0.00,,,0.00,weatherlink.com 1.10,2016-12-02 05:25:00,
2016-12-02 00:39:00,36.0,30.0,30.06,West,263,0.0,0.0,79,0.00,,,0.00,weatherlink.com 1.10,2016-12-02 05:39:00,
2016-12-02 00:55:00,35.9,30.0,30.05,WSW,253,0.0,0.0,79,0.00,,,0.00,weatherlink.com 1.10,2016-12-02 05:55:00,
2016-12-02 01:10:00,35.9,30.0,30.05,WSW,255,0.0,0.0,79,0.00,,,0.00,weatherlink.com 1.10,2016-12-02 06:10:00,
2016-12-02 01:39:00,35.9,30.0,30.06,WNW,296,0.0,1.0,79,0.00,,,0.00,weatherlink.com 1.10,2016-12-02 06:39:00,
2016-12-02 01:55:00,35.9,30.0,30.06,NW,319,0.0,0.0,80,0.00,,,0.00,weatherlink.com 1.10,2016-12-02 06:55:00,
2016-12-02 02:10:00,35.9,30.0,30.07,WNW,300,0.0,1.0,80,0.00,,,0.00,weatherlink.com 1.10,2016-12-02 07:10:00,
2016-12-02 02:25:00,35.9,30.0,30.07,West,278,0.0,0.0,80,0.00,,,0.00,weatherlink.com 1.10,2016-12-02 07:25:00,
2016-12-02 02:41:00,35.8,30.0,30.07,West,266,0.0,3.0,80,0.00,,,0.00,weatherlink.com 1.10,2016-12-02 07:41:00,
2016-12-02 02:54:00,35.8,30.0,30.08,West,278,0.0,0.0,80,0.00,,,0.00,weatherlink.com 1.10,2016-12-02 07:54:00,
2016-12-02 03:10:00,35.8,30.0,30.08,WSW,238,0.0,0.0,80,0.00,,,0.00,weatherlink.com 1.10,2016-12-02 08:10:00,
2016-12-02 03:25:00,35.8,31.0,30.08,West,280,0.0,0.0,81,0.00,,,0.00,weatherlink.com 1.10,2016-12-02 08:25:00,
2016-12-02 03:41:00,35.7,30.0,30.08,SW,216,0.0,0.0,81,0.00,,,0.00,weatherlink.com 1.10,2016-12-02 08:41:00,
2016-12-02 03:57:00,35.7,30.0,30.08,SW,222,0.0,0.0,80,0.00,,,0.00,weatherlink.com 1.10,2016-12-02 08:57:00,
2016-12-02 04:10:00,35.7,30.0,30.08,WSW,245,0.0,0.0,81,0.00,,,0.00,weatherlink.com 1.10,2016-12-02 09:10:00,
2016-12-02 04:25:00,35.7,30.0,30.09,SW,231,0.0,2.0,80,0.00,,,0.00,weatherlink.com 1.10,2016-12-02 09:25:00,
2016-12-02 04:41:00,35.7,30.0,30.09,SW,229,0.0,2.0,80,0.00,,,0.00,weatherlink.com 1.10,2016-12-02 09:41:00,
2016-12-02 04:55:00,35.7,30.0,30.10,West,276,0.0,1.0,80,0.00,,,0.00,weatherlink.com 1.10,2016-12-02 09:55:00,
2016-12-02 05:11:00,35.8,31.0,30.10,South,174,0.0,0.0,81,0.00,,,0.00,weatherlink.com 1.10,2016-12-02 10:11:00,
2016-12-02 05:25:00,35.7,30.0,30.11,WSW,239,0.0,0.0,81,0.00,,,0.00,weatherlink.com 1.10,2016-12-02 10:25:00,
2016-12-02 05:41:00,35.8,31.0,30.11,SSE,160,0.0,0.0,81,0.00,,,0.00,weatherlink.com 1.10,2016-12-02 10:41:00,
2016-12-02 05:57:00,35.8,31.0,30.12,WSW,248,0.0,0.0,81,0.00,,,0.00,weatherlink.com 1.10,2016-12-02 10:57:00,
2016-12-02 06:11:00,35.7,31.0,30.12,WSW,255,0.0,4.0,82,0.00,,,0.00,weatherlink.com 1.10,2016-12-02 11:11:00,
2016-12-02 06:27:00,35.7,30.0,30.12,NW,312,0.0,0.0,81,0.00,,,0.00,weatherlink.com 1.10,2016-12-02 11:27:00,
2016-12-02 06:41:00,35.5,30.0,30.13,WNW,290,0.0,4.0,81,0.00,,,0.00,weatherlink.com 1.10,2016-12-02 11:41:00,
2016-12-02 06:57:00,35.5,30.0,30.13,WNW,298,0.0,4.0,81,0.00,,,0.00,weatherlink.com 1.10,2016-12-02 11:57:00,
2016-12-02 07:11:00,35.4,30.0,30.14,West,266,0.0,5.0,81,0.00,,,0.00,weatherlink.com 1.10,2016-12-02 12:11:00,
2016-12-02 07:27:00,35.5,30.0,30.14,West,273,0.0,0.0,81,0.00,,,0.00,weatherlink.com 1.10,2016-12-02 12:27:00,
2016-12-02 07:43:00,35.4,30.0,30.14,WSW,247,0.0,1.0,82,0.00,,,0.00,weatherlink.com 1.10,2016-12-02 12:43:00,
2016-12-02 07:57:00,35.3,30.0,30.15,WNW,291,0.0,4.0,81,0.00,,,0.00,weatherlink.com 1.10,2016-12-02 12:57:00,
2016-12-02 08:13:00,35.3,30.0,30.15,WNW,287,0.0,4.0,82,0.00,,,0.00,weatherlink.com 1.10,2016-12-02 13:13:00,
2016-12-02 08:27:00,35.3,30.0,30.16,NW,311,0.0,1.0,82,0.00,,,0.00,weatherlink.com 1.10,2016-12-02 13:27:00,
2016-12-02 08:42:00,35.4,30.0,30.16,SSW,212,0.0,0.0,82,0.00,,,0.00,weatherlink.com 1.10,2016-12-02 13:42:00,
2016-12-02 08:58:00,35.5,31.0,30.16,WNW,295,0.0,3.0,82,0.00,,,0.00,weatherlink.com 1.10,2016-12-02 13:58:00,
2016-12-02 09:14:00,35.6,31.0,30.16,WNW,300,0.0,2.0,82,0.00,,,0.00,weatherlink.com 1.10,2016-12-02 14:14:00,
2016-12-02 09:28:00,35.6,31.0,30.17,WNW,284,0.0,2.0,83,0.00,,,0.00,weatherlink.com 1.10,2016-12-02 14:28:00,
2016-12-02 09:44:00,35.9,31.0,30.17,SW,225,0.0,0.0,83,0.00,,,0.00,weatherlink.com 1.10,2016-12-02 14:44:00,
2016-12-02 09:57:00,36.1,31.0,30.18,West,269,0.0,2.0,82,0.00,,,0.00,weatherlink.com 1.10,2016-12-02 14:57:00,
2016-12-02 10:15:00,36.7,32.0,30.17,SSE,158,0.0,1.0,82,0.00,,,0.00,weatherlink.com 1.10,2016-12-02 15:15:00,
2016-12-02 10:27:00,37.0,32.0,30.17,WSW,238,0.0,2.0,81,0.00,,,0.00,weatherlink.com 1.10,2016-12-02 15:27:00,
2016-12-02 10:43:00,37.4,32.0,30.18,SW,228,0.0,0.0,80,0.00,,,0.00,weatherlink.com 1.10,2016-12-02 15:43:00,
2016-12-02 10:59:00,37.6,32.0,30.18,WSW,240,0.0,4.0,80,0.00,,,0.00,weatherlink.com 1.10,2016-12-02 15:59:00,
2016-12-02 11:13:00,37.5,32.0,30.19,WSW,237,0.0,4.0,79,0.00,,,0.00,weatherlink.com 1.10,2016-12-02 16:13:00,
2016-12-02 11:28:00,37.6,32.0,30.19,WSW,255,0.0,0.0,79,0.00,,,0.00,weatherlink.com 1.10,2016-12-02 16:28:00,
2016-12-02 11:44:00,37.6,32.0,30.19,SSW,205,0.0,4.0,79,0.00,,,0.00,weatherlink.com 1.10,2016-12-02 16:44:00,
2016-12-02 11:58:00,37.7,31.0,30.19,WNW,285,0.0,0.0,78,0.00,,,0.00,weatherlink.com 1.10,2016-12-02 16:58:00,
2016-12-02 12:14:00,37.7,32.0,30.19,WSW,245,0.0,1.0,79,0.00,,,0.00,weatherlink.com 1.10,2016-12-02 17:14:00,
2016-12-02 12:30:00,38.1,32.0,30.19,SSW,200,0.0,3.0,79,0.00,,,0.00,weatherlink.com 1.10,2016-12-02 17:30:00,
2016-12-02 12:43:00,38.3,32.0,30.19,WSW,245,0.0,4.0,78,0.00,,,0.00,weatherlink.com 1.10,2016-12-02 17:43:00,
2016-12-02 12:59:00,38.7,32.0,30.19,WSW,243,0.0,1.0,77,0.00,,,0.00,weatherlink.com 1.10,2016-12-02 17:59:00,
2016-12-02 13:14:00,38.9,32.0,30.18,SW,236,0.0,2.0,77,0.00,,,0.00,weatherlink.com 1.10,2016-12-02 18:14:00,
2016-12-02 13:30:00,39.1,32.0,30.18,WNW,295,0.0,1.0,77,0.00,,,0.00,weatherlink.com 1.10,2016-12-02 18:30:00,
2016-12-02 13:44:00,39.0,32.0,30.18,SSW,208,0.0,0.0,77,0.00,,,0.00,weatherlink.com 1.10,2016-12-02 18:44:00,
2016-12-02 14:00:00,39.0,32.0,30.19,West,264,0.0,1.0,77,0.00,,,0.00,weatherlink.com 1.10,2016-12-02 19:00:00,
2016-12-02 14:15:00,39.1,32.0,30.19,WSW,239,0.0,1.0,76,0.00,,,0.00,weatherlink.com 1.10,2016-12-02 19:15:00,
2016-12-02 14:29:00,39.2,33.0,30.19,WSW,253,0.0,1.0,77,0.00,,,0.00,weatherlink.com 1.10,2016-12-02 19:29:00,
2016-12-02 14:44:00,38.9,32.0,30.19,West,259,0.0,0.0,77,0.00,,,0.00,weatherlink.com 1.10,2016-12-02 19:44:00,
2016-12-02 15:01:00,38.8,32.0,30.19,NW,309,0.0,4.0,77,0.00,,,0.00,weatherlink.com 1.10,2016-12-02 20:01:00,
2016-12-02 15:15:00,38.9,32.0,30.20,WSW,245,0.0,4.0,77,0.00,,,0.00,weatherlink.com 1.10,2016-12-02 20:15:00,
2016-12-02 15:30:00,39.0,32.0,30.20,SSW,210,0.0,1.0,77,0.00,,,0.00,weatherlink.com 1.10,2016-12-02 20:30:00,
2016-12-02 15:44:00,38.9,32.0,30.21,WSW,257,0.0,4.0,76,0.00,,,0.00,weatherlink.com 1.10,2016-12-02 20:44:00,
2016-12-02 16:00:00,38.9,32.0,30.22,West,271,0.0,0.0,77,0.00,,,0.00,weatherlink.com 1.10,2016-12-02 21:00:00,
2016-12-02 16:15:00,38.8,32.0,30.22,West,261,0.0,0.0,77,0.00,,,0.00,weatherlink.com 1.10,2016-12-02 21:15:00,
2016-12-02 16:30:00,38.7,32.0,30.23,WSW,239,0.0,1.0,77,0.00,,,0.00,weatherlink.com 1.10,2016-12-02 21:30:00,
2016-12-02 16:46:00,38.5,32.0,30.23,West,271,0.0,2.0,77,0.00,,,0.00,weatherlink.com 1.10,2016-12-02 21:46:00,
2016-12-02 17:00:00,38.5,32.0,30.24,WNW,293,0.0,1.0,77,0.00,,,0.00,weatherlink.com 1.10,2016-12-02 22:00:00,
2016-12-02 17:15:00,38.4,32.0,30.24,WNW,292,0.0,1.0,77,0.00,,,0.00,weatherlink.com 1.10,2016-12-02 22:15:00,
2016-12-02 17:31:00,38.4,32.0,30.24,NW,305,0.0,1.0,78,0.00,,,0.00,weatherlink.com 1.10,2016-12-02 22:31:00,
2016-12-02 17:45:00,38.3,32.0,30.24,WNW,284,0.0,1.0,77,0.00,,,0.00,weatherlink.com 1.10,2016-12-02 22:45:00,
2016-12-02 18:00:00,38.3,32.0,30.24,West,275,0.0,0.0,77,0.00,,,0.00,weatherlink.com 1.10,2016-12-02 23:00:00,
2016-12-02 18:16:00,38.2,32.0,30.25,WNW,297,0.0,0.0,78,0.00,,,0.00,weatherlink.com 1.10,2016-12-02 23:16:00,
2016-12-02 18:32:00,38.0,32.0,30.26,WNW,293,0.0,6.0,79,0.00,,,0.00,weatherlink.com 1.10,2016-12-02 23:32:00,
2016-12-02 18:46:00,37.8,32.0,30.26,West,276,0.0,3.0,79,0.00,,,0.00,weatherlink.com 1.10,2016-12-02 23:46:00,
2016-12-02 19:17:00,37.7,32.0,30.27,WNW,288,0.0,3.0,79,0.00,,,0.00,weatherlink.com 1.10,2016-12-03 00:17:00,
2016-12-02 19:31:00,37.5,32.0,30.27,West,281,0.0,0.0,79,0.00,,,0.00,weatherlink.com 1.10,2016-12-03 00:31:00,
2016-12-02 19:47:00,37.5,32.0,30.28,West,280,0.0,0.0,79,0.00,,,0.00,weatherlink.com 1.10,2016-12-03 00:47:00,
2016-12-02 20:02:00,37.4,31.0,30.28,WNW,297,0.0,0.0,79,0.00,,,0.00,weatherlink.com 1.10,2016-12-03 01:02:00,
2016-12-02 20:16:00,37.3,32.0,30.28,SSW,207,0.0,0.0,80,0.00,,,0.00,weatherlink.com 1.10,2016-12-03 01:16:00,
2016-12-02 20:32:00,37.4,32.0,30.29,West,274,0.0,2.0,80,0.00,,,0.00,weatherlink.com 1.10,2016-12-03 01:32:00,
2016-12-02 20:47:00,37.4,32.0,30.29,WNW,295,1.0,2.0,81,0.00,,,0.00,weatherlink.com 1.10,2016-12-03 01:47:00,
2016-12-02 21:02:00,37.3,33.0,30.30,WNW,284,0.0,0.0,83,0.00,,,0.00,weatherlink.com 1.10,2016-12-03 02:02:00,
2016-12-02 21:18:00,37.0,33.0,30.30,West,273,0.0,0.0,85,0.00,,,0.00,weatherlink.com 1.10,2016-12-03 02:18:00,
2016-12-02 21:33:00,36.7,33.0,30.30,WSW,243,0.0,0.0,86,0.00,,,0.00,weatherlink.com 1.10,2016-12-03 02:33:00,